Dati Storici

Data ora Umidita' aria (%) Temperatura aria (°C) Rad globale (W/m²) Gonioanemometro (°) Tacoanemometro (m/s) Pioggia (mm)
01-07-2020 04:10 97.6 % 22.618 -73.937 0.01 0 0
01-07-2020 04:00 97.6 % 22.644 -58.349 0.979 0 0
01-07-2020 03:50 97.6 % 22.703 -76.69 0.975 0 0
01-07-2020 03:40 97.5 % 22.828 -73.163 -0.005 0 0
01-07-2020 03:30 97.5 % 23.042 -75.033 0.341 0 0
01-07-2020 03:20 97.5 % 23.123 -77.508 0.912 0 0
01-07-2020 03:10 97.5 % 23.288 -79.307 1.44 0 0
01-07-2020 03:00 97.5 % 23.328 -77.855 0.542 0 0
01-07-2020 02:50 97.5 % 23.246 -74.271 1.401 0 0
01-07-2020 02:40 97.5 % 23.149 -77.522 0.766 0 0
01-07-2020 02:30 97.5 % 23.041 -78.881 1.215 0 0
01-07-2020 02:20 97.6 % 22.998 -72.042 1.864 0 0
01-07-2020 02:10 97.5 % 23.103 -74.486 1.33 0 0
01-07-2020 02:00 97.5 % 23.218 -67.718 0.828 0 0
01-07-2020 01:50 97.5 % 23.223 -69.802 0.96 0 0
01-07-2020 01:40 97.5 % 23.256 -79.753 1.672 0 0
01-07-2020 01:30 97.5 % 23.249 -72.709 1.003 0 0
01-07-2020 01:20 97.5 % 23.298 -70.689 1.17 0 0
01-07-2020 01:10 97.5 % 23.326 -75.33 1.427 0 0
01-07-2020 01:00 97.5 % 23.512 -73.918 0.911 0 0

I dati sono presentati in modo automatico a scopo informativo. In seguito a verifica i dati possono subire modifiche o essere invalidati e non riportati negli archivi definitivi.